Year,Month,Day,Hour,Minute,Value (Times are PST for temperature in C)
2017,05,22,00,00,12.70
2017,05,22,00,01,12.70
2017,05,22,00,02,12.60
2017,05,22,00,03,12.60
2017,05,22,00,04,12.60
2017,05,22,00,05,12.60
2017,05,22,00,06,12.60
2017,05,22,00,07,12.50
2017,05,22,00,08,12.50
2017,05,22,00,09,12.50
2017,05,22,00,10,12.50
2017,05,22,00,11,12.50
2017,05,22,00,12,12.40
2017,05,22,00,13,12.40
2017,05,22,00,14,12.40
2017,05,22,00,15,12.40
2017,05,22,00,16,12.40
2017,05,22,00,17,12.40
2017,05,22,00,18,12.30
2017,05,22,00,19,12.30
2017,05,22,00,20,12.30
2017,05,22,00,21,12.30
2017,05,22,00,22,12.30
2017,05,22,00,23,12.30
2017,05,22,00,24,12.30
2017,05,22,00,25,12.40
2017,05,22,00,26,12.40
2017,05,22,00,27,12.40
2017,05,22,00,28,12.40
2017,05,22,00,29,12.40
2017,05,22,00,30,12.40
2017,05,22,00,31,12.30
2017,05,22,00,32,12.30
2017,05,22,00,33,12.30
2017,05,22,00,34,12.30
2017,05,22,00,35,12.20
2017,05,22,00,36,12.20
2017,05,22,00,37,12.10
2017,05,22,00,38,12.10
2017,05,22,00,39,12.10
2017,05,22,00,40,12.00
2017,05,22,00,41,11.90
2017,05,22,00,42,11.90
2017,05,22,00,43,11.90
2017,05,22,00,44,11.80
2017,05,22,00,45,11.80
2017,05,22,00,46,11.80
2017,05,22,00,47,11.80
2017,05,22,00,48,11.70
2017,05,22,00,49,11.70
2017,05,22,00,50,11.60
2017,05,22,00,51,11.60
2017,05,22,00,52,11.50
2017,05,22,00,53,11.50
2017,05,22,00,54,11.40
2017,05,22,00,55,11.40
2017,05,22,00,56,11.30
2017,05,22,00,57,11.30
2017,05,22,00,58,11.30
2017,05,22,00,59,11.30
2017,05,22,01,00,11.30
2017,05,22,01,01,11.30
2017,05,22,01,02,11.30
2017,05,22,01,03,11.30
2017,05,22,01,04,11.40
2017,05,22,01,05,11.40
2017,05,22,01,06,11.40
2017,05,22,01,07,11.40
2017,05,22,01,08,11.40
2017,05,22,01,09,11.40
2017,05,22,01,10,11.40
2017,05,22,01,11,11.40
2017,05,22,01,12,11.40
2017,05,22,01,13,11.40
2017,05,22,01,14,11.40
2017,05,22,01,15,11.30
2017,05,22,01,16,11.30
2017,05,22,01,17,11.30
2017,05,22,01,18,11.30
2017,05,22,01,19,11.20
2017,05,22,01,20,11.20
2017,05,22,01,21,11.20
2017,05,22,01,22,11.20
2017,05,22,01,23,11.10
2017,05,22,01,24,11.10
2017,05,22,01,25,11.10
2017,05,22,01,26,11.10
2017,05,22,01,27,11.10
2017,05,22,01,28,11.10
2017,05,22,01,29,11.10
2017,05,22,01,30,11.10
2017,05,22,01,31,11.10
2017,05,22,01,32,11.10
2017,05,22,01,33,11.10
2017,05,22,01,34,11.10
2017,05,22,01,35,11.00
2017,05,22,01,36,11.00
2017,05,22,01,37,10.90
2017,05,22,01,38,10.90
2017,05,22,01,39,10.90
2017,05,22,01,40,10.90
2017,05,22,01,41,10.80
2017,05,22,01,42,10.80
2017,05,22,01,43,10.80
2017,05,22,01,44,10.80
2017,05,22,01,45,10.80
2017,05,22,01,46,10.80
2017,05,22,01,47,10.70
2017,05,22,01,48,10.70
2017,05,22,01,49,10.70
2017,05,22,01,50,10.70
2017,05,22,01,51,10.70
2017,05,22,01,52,10.70
2017,05,22,01,53,10.70
2017,05,22,01,54,10.70
2017,05,22,01,55,10.70
2017,05,22,01,56,10.70
2017,05,22,01,57,10.70
2017,05,22,01,58,10.60
2017,05,22,01,59,10.60
2017,05,22,02,00,10.60
2017,05,22,02,01,10.60
2017,05,22,02,02,10.60
2017,05,22,02,03,10.60
2017,05,22,02,04,10.60
2017,05,22,02,05,10.60
2017,05,22,02,06,10.50
2017,05,22,02,07,10.50
2017,05,22,02,08,10.40
2017,05,22,02,09,10.40
2017,05,22,02,10,10.40
2017,05,22,02,11,10.40
2017,05,22,02,12,10.30
2017,05,22,02,13,10.30
2017,05,22,02,14,10.30
2017,05,22,02,15,10.30
2017,05,22,02,16,10.30
2017,05,22,02,17,10.30
2017,05,22,02,18,10.30
2017,05,22,02,19,10.30
2017,05,22,02,20,10.30
2017,05,22,02,21,10.20
2017,05,22,02,22,10.20
2017,05,22,02,23,10.20
2017,05,22,02,24,10.20
2017,05,22,02,25,10.20
2017,05,22,02,26,10.20
2017,05,22,02,27,10.10
2017,05,22,02,28,10.10
2017,05,22,02,29,10.10
2017,05,22,02,30,10.10
2017,05,22,02,31,10.10
2017,05,22,02,32,10.10
2017,05,22,02,33,10.10
2017,05,22,02,34,10.10
2017,05,22,02,35,10.10
2017,05,22,02,36,10.10
2017,05,22,02,37,10.10
2017,05,22,02,38,10.00
2017,05,22,02,39,10.00
2017,05,22,02,40,10.00
2017,05,22,02,41,10.00
2017,05,22,02,42,10.00
2017,05,22,02,43,9.90
2017,05,22,02,44,9.90
2017,05,22,02,45,9.90
2017,05,22,02,46,9.90
2017,05,22,02,47,9.90
2017,05,22,02,48,9.90
2017,05,22,02,49,9.90
2017,05,22,02,50,9.90
2017,05,22,02,51,9.90
2017,05,22,02,52,9.90
2017,05,22,02,53,9.80
2017,05,22,02,54,9.80
2017,05,22,02,55,9.80
2017,05,22,02,56,9.80
2017,05,22,02,57,9.80
2017,05,22,02,58,9.80
2017,05,22,02,59,9.80
2017,05,22,03,00,9.80
2017,05,22,03,01,9.70
2017,05,22,03,02,9.70
2017,05,22,03,03,9.70
2017,05,22,03,04,9.70
2017,05,22,03,05,9.70
2017,05,22,03,06,9.70
2017,05,22,03,07,9.70
2017,05,22,03,08,9.70
2017,05,22,03,09,9.70
2017,05,22,03,10,9.70
2017,05,22,03,11,9.70
2017,05,22,03,12,9.70
2017,05,22,03,13,9.70
2017,05,22,03,14,9.70
2017,05,22,03,15,9.70
2017,05,22,03,16,9.70
2017,05,22,03,17,9.70
2017,05,22,03,18,9.70
2017,05,22,03,19,9.70
2017,05,22,03,20,9.70
2017,05,22,03,21,9.70
2017,05,22,03,22,9.70
2017,05,22,03,23,9.70
2017,05,22,03,24,9.70
2017,05,22,03,25,9.60
2017,05,22,03,26,9.60
2017,05,22,03,27,9.60
2017,05,22,03,28,9.60
2017,05,22,03,29,9.60
2017,05,22,03,30,9.60
2017,05,22,03,31,9.60
2017,05,22,03,32,9.50
2017,05,22,03,33,9.50
2017,05,22,03,34,9.40
2017,05,22,03,35,9.40
2017,05,22,03,36,9.40
2017,05,22,03,37,9.40
2017,05,22,03,38,9.30
2017,05,22,03,39,9.30
2017,05,22,03,40,9.30
2017,05,22,03,41,9.30
2017,05,22,03,42,9.30
2017,05,22,03,43,9.40
2017,05,22,03,44,9.40
2017,05,22,03,45,9.40
2017,05,22,03,46,9.40
2017,05,22,03,47,9.40
2017,05,22,03,48,9.40
2017,05,22,03,49,9.40
2017,05,22,03,50,9.40
2017,05,22,03,51,9.40
2017,05,22,03,52,9.40
2017,05,22,03,53,9.40
2017,05,22,03,54,9.40
2017,05,22,03,55,9.40
2017,05,22,03,56,9.40
2017,05,22,03,57,9.40
2017,05,22,03,58,9.40
2017,05,22,03,59,9.40
2017,05,22,04,00,9.40
2017,05,22,04,01,9.40
2017,05,22,04,02,9.40
2017,05,22,04,03,9.40
2017,05,22,04,04,9.40
2017,05,22,04,05,9.40
2017,05,22,04,06,9.50
2017,05,22,04,07,9.50
2017,05,22,04,08,9.50
2017,05,22,04,09,9.50
2017,05,22,04,10,9.40
2017,05,22,04,11,9.40
2017,05,22,04,12,9.40
2017,05,22,04,13,9.40
2017,05,22,04,14,9.40
2017,05,22,04,15,9.40
2017,05,22,04,16,9.40
2017,05,22,04,17,9.40
2017,05,22,04,18,9.40
2017,05,22,04,19,9.30
2017,05,22,04,20,9.30
2017,05,22,04,21,9.30
2017,05,22,04,22,9.30
2017,05,22,04,23,9.20
2017,05,22,04,24,9.20
2017,05,22,04,25,9.20
2017,05,22,04,26,9.20
2017,05,22,04,27,9.10
2017,05,22,04,28,9.10
2017,05,22,04,29,9.10
2017,05,22,04,30,9.10
2017,05,22,04,31,9.00
2017,05,22,04,32,9.10
2017,05,22,04,33,9.00
2017,05,22,04,34,9.00
2017,05,22,04,35,9.00
2017,05,22,04,36,8.90
2017,05,22,04,37,8.90
2017,05,22,04,38,8.90
2017,05,22,04,39,8.90
2017,05,22,04,40,8.90
2017,05,22,04,41,8.90
2017,05,22,04,42,8.90
2017,05,22,04,43,8.90
2017,05,22,04,44,8.90
2017,05,22,04,45,8.90
2017,05,22,04,46,9.00
2017,05,22,04,47,9.00
2017,05,22,04,48,9.00
2017,05,22,04,49,9.00
2017,05,22,04,50,9.00
2017,05,22,04,51,8.90
2017,05,22,04,52,8.90
2017,05,22,04,53,8.90
2017,05,22,04,54,8.90
2017,05,22,04,55,8.90
2017,05,22,04,56,8.90
2017,05,22,04,57,8.90
2017,05,22,04,58,8.90
2017,05,22,04,59,8.90
2017,05,22,05,00,8.90
2017,05,22,05,01,8.90
2017,05,22,05,02,8.90
2017,05,22,05,03,8.90
2017,05,22,05,04,8.90
2017,05,22,05,05,8.90
2017,05,22,05,06,8.90
2017,05,22,05,07,8.90
2017,05,22,05,08,8.90
2017,05,22,05,09,8.80
2017,05,22,05,10,8.80
2017,05,22,05,11,8.80
2017,05,22,05,12,8.80
2017,05,22,05,13,8.80
2017,05,22,05,14,8.80
2017,05,22,05,15,8.80
2017,05,22,05,16,8.80
2017,05,22,05,17,8.80
2017,05,22,05,18,8.80
2017,05,22,05,19,8.80
2017,05,22,05,20,8.80
2017,05,22,05,21,8.70
2017,05,22,05,22,8.70
2017,05,22,05,23,8.70
2017,05,22,05,24,8.70
2017,05,22,05,25,8.70
2017,05,22,05,26,8.60
2017,05,22,05,27,8.60
2017,05,22,05,28,8.60
2017,05,22,05,29,8.60
2017,05,22,05,30,8.60
2017,05,22,05,31,8.60
2017,05,22,05,32,8.60
2017,05,22,05,33,8.50
2017,05,22,05,34,8.50
2017,05,22,05,35,8.50
2017,05,22,05,36,8.50
2017,05,22,05,37,8.40
2017,05,22,05,38,8.40
2017,05,22,05,39,8.40
2017,05,22,05,40,8.40
2017,05,22,05,41,8.40
2017,05,22,05,42,8.40
2017,05,22,05,43,8.40
2017,05,22,05,44,8.30
2017,05,22,05,45,8.30
2017,05,22,05,46,8.30
2017,05,22,05,47,8.20
2017,05,22,05,48,8.20
2017,05,22,05,49,8.20
2017,05,22,05,50,8.20
2017,05,22,05,51,8.20
2017,05,22,05,52,8.20
2017,05,22,05,53,8.20
2017,05,22,05,54,8.20
2017,05,22,05,55,8.20
2017,05,22,05,56,8.20
2017,05,22,05,57,8.20
2017,05,22,05,58,8.20
2017,05,22,05,59,8.20
2017,05,22,06,00,8.20
2017,05,22,06,01,8.10
2017,05,22,06,02,8.10
2017,05,22,06,03,8.10
2017,05,22,06,04,8.10
2017,05,22,06,05,8.10
2017,05,22,06,06,8.10
2017,05,22,06,07,8.20
2017,05,22,06,08,8.20
2017,05,22,06,09,8.20
2017,05,22,06,10,8.20
2017,05,22,06,11,8.20
2017,05,22,06,12,8.20
2017,05,22,06,13,8.20
2017,05,22,06,14,8.20
2017,05,22,06,15,8.20
2017,05,22,06,16,8.20
2017,05,22,06,17,8.20
2017,05,22,06,18,8.20
2017,05,22,06,19,8.20
2017,05,22,06,20,8.30
2017,05,22,06,21,8.30
2017,05,22,06,22,8.30
2017,05,22,06,23,8.30
2017,05,22,06,24,8.30
2017,05,22,06,25,8.30
2017,05,22,06,26,8.40
2017,05,22,06,27,8.40
2017,05,22,06,28,8.40
2017,05,22,06,29,8.40
2017,05,22,06,30,8.50
2017,05,22,06,31,8.50
2017,05,22,06,32,8.50
2017,05,22,06,33,8.50
2017,05,22,06,34,8.50
2017,05,22,06,35,8.50
2017,05,22,06,36,8.60
2017,05,22,06,37,8.60
2017,05,22,06,38,8.60
2017,05,22,06,39,8.60
2017,05,22,06,40,8.60
2017,05,22,06,41,8.60
2017,05,22,06,42,8.60
2017,05,22,06,43,8.60
2017,05,22,06,44,8.60
2017,05,22,06,45,8.60
2017,05,22,06,46,8.60
2017,05,22,06,47,8.60
2017,05,22,06,48,8.60
2017,05,22,06,49,8.60
2017,05,22,06,50,8.60
2017,05,22,06,51,8.60
2017,05,22,06,52,8.70
2017,05,22,06,53,8.70
2017,05,22,06,54,8.70
2017,05,22,06,55,8.70
2017,05,22,06,56,8.70
2017,05,22,06,57,8.80
2017,05,22,06,58,8.80
2017,05,22,06,59,8.80
2017,05,22,07,00,8.80
2017,05,22,07,01,8.90
2017,05,22,07,02,8.90
2017,05,22,07,03,8.90
2017,05,22,07,04,8.90
2017,05,22,07,05,8.90
2017,05,22,07,06,8.90
2017,05,22,07,07,9.00
2017,05,22,07,08,9.00
2017,05,22,07,09,9.00
2017,05,22,07,10,9.00
2017,05,22,07,11,9.10
2017,05,22,07,12,9.10
2017,05,22,07,13,9.10
2017,05,22,07,14,9.10
2017,05,22,07,15,9.10
2017,05,22,07,16,9.10
2017,05,22,07,17,9.20
2017,05,22,07,18,9.20
2017,05,22,07,19,9.20
2017,05,22,07,20,9.20
2017,05,22,07,21,9.30
2017,05,22,07,22,9.30
2017,05,22,07,23,9.30
2017,05,22,07,24,9.30
2017,05,22,07,25,9.30
2017,05,22,07,26,9.30
2017,05,22,07,27,9.40
2017,05,22,07,28,9.40
2017,05,22,07,29,9.50
2017,05,22,07,30,9.60
2017,05,22,07,31,9.60
2017,05,22,07,32,9.60
2017,05,22,07,33,9.70
2017,05,22,07,34,9.70
2017,05,22,07,35,9.80
2017,05,22,07,36,9.80
2017,05,22,07,37,9.90
2017,05,22,07,38,9.90
2017,05,22,07,39,10.00
2017,05,22,07,40,10.00
2017,05,22,07,41,10.10
2017,05,22,07,42,10.20
2017,05,22,07,43,10.20
2017,05,22,07,44,10.30
2017,05,22,07,45,10.40
2017,05,22,07,46,10.50
2017,05,22,07,47,10.60
2017,05,22,07,48,10.70
2017,05,22,07,49,10.80
2017,05,22,07,50,10.90
2017,05,22,07,51,11.10
2017,05,22,07,52,11.20
2017,05,22,07,53,11.30
2017,05,22,07,54,11.50
2017,05,22,07,55,11.60
2017,05,22,07,56,11.80
2017,05,22,07,57,11.90
2017,05,22,07,58,12.00
2017,05,22,07,59,12.20
2017,05,22,08,00,12.30
2017,05,22,08,01,12.40
2017,05,22,08,02,12.50
2017,05,22,08,03,12.60
2017,05,22,08,04,12.70
2017,05,22,08,05,12.80
2017,05,22,08,06,12.90
2017,05,22,08,07,13.00
2017,05,22,08,08,13.20
2017,05,22,08,09,13.30
2017,05,22,08,10,13.40
2017,05,22,08,11,13.50
2017,05,22,08,12,13.60
2017,05,22,08,13,13.70
2017,05,22,08,14,13.80
2017,05,22,08,15,13.90
2017,05,22,08,16,14.00
2017,05,22,08,17,14.10
2017,05,22,08,18,14.20
2017,05,22,08,19,14.20
2017,05,22,08,20,14.30
2017,05,22,08,21,14.40
2017,05,22,08,22,14.50
2017,05,22,08,23,14.50
2017,05,22,08,24,14.60
2017,05,22,08,25,14.60
2017,05,22,08,26,14.70
2017,05,22,08,27,14.80
2017,05,22,08,28,14.80
2017,05,22,08,29,14.90
2017,05,22,08,30,15.00
2017,05,22,08,31,15.00
2017,05,22,08,32,15.00
2017,05,22,08,33,15.00
2017,05,22,08,34,15.00
2017,05,22,08,35,15.20
2017,05,22,08,36,15.30
2017,05,22,08,37,15.30
2017,05,22,08,38,15.40
2017,05,22,08,39,15.50
2017,05,22,08,40,15.60
2017,05,22,08,41,15.70
2017,05,22,08,42,15.80
2017,05,22,08,43,15.80
2017,05,22,08,44,15.90
2017,05,22,08,45,15.90
2017,05,22,08,46,15.90
2017,05,22,08,47,16.00
2017,05,22,08,48,16.00
2017,05,22,08,49,16.10
2017,05,22,08,50,16.10
2017,05,22,08,51,16.20
2017,05,22,08,52,16.20
2017,05,22,08,53,16.30
2017,05,22,08,54,16.30
2017,05,22,08,55,16.30
2017,05,22,08,56,16.40
2017,05,22,08,57,16.40
2017,05,22,08,58,16.50
2017,05,22,08,59,16.50
2017,05,22,09,00,16.60
2017,05,22,09,01,16.70
2017,05,22,09,02,16.70
2017,05,22,09,03,16.80
2017,05,22,09,04,16.90
2017,05,22,09,05,17.00
2017,05,22,09,06,17.00
2017,05,22,09,07,17.00
2017,05,22,09,08,17.00
2017,05,22,09,09,17.00
2017,05,22,09,10,17.00
2017,05,22,09,11,17.00
2017,05,22,09,12,17.10
2017,05,22,09,13,17.10
2017,05,22,09,14,17.20
2017,05,22,09,15,17.20
2017,05,22,09,16,17.20
2017,05,22,09,17,17.30
2017,05,22,09,18,17.30
2017,05,22,09,19,17.30
2017,05,22,09,20,17.30
2017,05,22,09,21,17.40
2017,05,22,09,22,17.40
2017,05,22,09,23,17.50
2017,05,22,09,24,17.60
2017,05,22,09,25,17.70
2017,05,22,09,26,17.80
2017,05,22,09,27,17.90
2017,05,22,09,28,18.00
2017,05,22,09,29,18.10
2017,05,22,09,30,18.20
2017,05,22,09,31,18.30
2017,05,22,09,32,18.40
2017,05,22,09,33,18.40
2017,05,22,09,34,18.50
2017,05,22,09,35,18.50
2017,05,22,09,36,18.60
2017,05,22,09,37,18.60
2017,05,22,09,38,18.60
2017,05,22,09,39,18.60
2017,05,22,09,40,18.60
2017,05,22,09,41,18.70
2017,05,22,09,42,18.80
2017,05,22,09,43,18.90
2017,05,22,09,44,19.00
2017,05,22,09,45,19.10
2017,05,22,09,46,19.20
2017,05,22,09,47,19.30
2017,05,22,09,48,19.40
2017,05,22,09,49,19.50
2017,05,22,09,50,19.60
2017,05,22,09,51,19.70
2017,05,22,09,52,19.80
2017,05,22,09,53,19.80
2017,05,22,09,54,19.90
2017,05,22,09,55,19.90
2017,05,22,09,56,19.90
2017,05,22,09,57,19.90
2017,05,22,09,58,19.90
2017,05,22,09,59,19.80
2017,05,22,10,00,19.70
2017,05,22,10,01,19.70
2017,05,22,10,02,19.70
2017,05,22,10,03,19.70
2017,05,22,10,04,19.70
2017,05,22,10,05,19.70
2017,05,22,10,06,19.70
2017,05,22,10,07,19.70
2017,05,22,10,08,19.70
2017,05,22,10,09,19.80
2017,05,22,10,10,19.80
2017,05,22,10,11,19.80
2017,05,22,10,12,19.90
2017,05,22,10,13,19.90
2017,05,22,10,14,19.90
2017,05,22,10,15,19.90
2017,05,22,10,16,20.00
2017,05,22,10,17,20.00
2017,05,22,10,18,20.00
2017,05,22,10,19,20.10
2017,05,22,10,20,20.10
2017,05,22,10,21,20.20
2017,05,22,10,22,20.20
2017,05,22,10,23,20.20
2017,05,22,10,24,20.30
2017,05,22,10,25,20.30
2017,05,22,10,26,20.30
2017,05,22,10,27,20.30
2017,05,22,10,28,20.30
2017,05,22,10,29,20.30
2017,05,22,10,30,20.30
2017,05,22,10,31,20.40
2017,05,22,10,32,20.40
2017,05,22,10,33,20.40
2017,05,22,10,34,20.50
2017,05,22,10,35,20.50
2017,05,22,10,36,20.60
2017,05,22,10,37,20.60
2017,05,22,10,38,20.60
2017,05,22,10,39,20.70
2017,05,22,10,40,20.70
2017,05,22,10,41,20.80
2017,05,22,10,42,20.90
2017,05,22,10,43,21.00
2017,05,22,10,44,21.10
2017,05,22,10,45,21.20
2017,05,22,10,46,21.30
2017,05,22,10,47,21.30
2017,05,22,10,48,21.30
2017,05,22,10,49,21.40
2017,05,22,10,50,21.50
2017,05,22,10,51,21.60
2017,05,22,10,52,21.70
2017,05,22,10,53,21.80
2017,05,22,10,54,21.80
2017,05,22,10,55,21.90
2017,05,22,10,56,21.90
2017,05,22,10,57,21.90
2017,05,22,10,58,21.90
2017,05,22,10,59,21.80
2017,05,22,11,00,21.80
2017,05,22,11,01,21.80
2017,05,22,11,02,21.80
2017,05,22,11,03,21.80
2017,05,22,11,04,21.80
2017,05,22,11,05,21.80
2017,05,22,11,06,21.80
2017,05,22,11,07,21.80
2017,05,22,11,08,21.80
2017,05,22,11,09,21.80
2017,05,22,11,10,21.90
2017,05,22,11,11,22.00
2017,05,22,11,12,22.10
2017,05,22,11,13,22.10
2017,05,22,11,14,22.00
2017,05,22,11,15,22.00
2017,05,22,11,16,22.00
2017,05,22,11,17,22.00
2017,05,22,11,18,22.00
2017,05,22,11,19,22.00
2017,05,22,11,20,22.00
2017,05,22,11,21,22.10
2017,05,22,11,22,22.10
2017,05,22,11,23,22.20
2017,05,22,11,24,22.20
2017,05,22,11,25,22.30
2017,05,22,11,26,22.40
2017,05,22,11,27,22.50
2017,05,22,11,28,22.60
2017,05,22,11,29,22.60
2017,05,22,11,30,22.70
2017,05,22,11,31,22.80
2017,05,22,11,32,22.80
2017,05,22,11,33,22.90
2017,05,22,11,34,22.90
2017,05,22,11,35,22.90
2017,05,22,11,36,22.90
2017,05,22,11,37,22.90
2017,05,22,11,38,22.80
2017,05,22,11,39,22.80
2017,05,22,11,40,22.80
2017,05,22,11,41,22.80
2017,05,22,11,42,22.90
2017,05,22,11,43,22.90
2017,05,22,11,44,22.90
2017,05,22,11,45,22.90
2017,05,22,11,46,22.90
2017,05,22,11,47,23.00
2017,05,22,11,48,23.00
2017,05,22,11,49,23.10
2017,05,22,11,50,23.20
2017,05,22,11,51,23.30
2017,05,22,11,52,23.40
2017,05,22,11,53,23.40
2017,05,22,11,54,23.50
2017,05,22,11,55,23.60
2017,05,22,11,56,23.60
2017,05,22,11,57,23.60
2017,05,22,11,58,23.70
2017,05,22,11,59,23.70
2017,05,22,12,00,23.80
2017,05,22,12,01,23.80
2017,05,22,12,02,23.80
2017,05,22,12,03,23.80
2017,05,22,12,04,23.80
2017,05,22,12,05,23.80
2017,05,22,12,06,23.80
2017,05,22,12,07,23.80
2017,05,22,12,08,23.70
2017,05,22,12,09,23.70
2017,05,22,12,10,23.70
2017,05,22,12,11,23.70
2017,05,22,12,12,23.70
2017,05,22,12,13,23.70
2017,05,22,12,14,23.70
2017,05,22,12,15,23.80
2017,05,22,12,16,23.90
2017,05,22,12,17,23.90
2017,05,22,12,18,24.00
2017,05,22,12,19,24.10
2017,05,22,12,20,24.10
2017,05,22,12,21,24.20
2017,05,22,12,22,24.30
2017,05,22,12,23,24.30
2017,05,22,12,24,24.30
2017,05,22,12,25,24.30
2017,05,22,12,26,24.30
2017,05,22,12,27,24.30
2017,05,22,12,28,24.40
2017,05,22,12,29,24.40
2017,05,22,12,30,24.60
2017,05,22,12,31,24.70
2017,05,22,12,32,24.80
2017,05,22,12,33,24.80
2017,05,22,12,34,24.80
2017,05,22,12,35,24.80
2017,05,22,12,36,24.80
2017,05,22,12,37,24.80
2017,05,22,12,38,24.80
2017,05,22,12,39,24.80
2017,05,22,12,40,24.90
2017,05,22,12,41,25.00
2017,05,22,12,42,25.00
2017,05,22,12,43,25.00
2017,05,22,12,44,24.90
2017,05,22,12,45,24.90
2017,05,22,12,46,24.90
2017,05,22,12,47,25.00
2017,05,22,12,48,25.00
2017,05,22,12,49,25.10
2017,05,22,12,50,25.10
2017,05,22,12,51,25.20
2017,05,22,12,52,25.20
2017,05,22,12,53,25.20
2017,05,22,12,54,25.10
2017,05,22,12,55,25.10
2017,05,22,12,56,25.10
2017,05,22,12,57,25.10
2017,05,22,12,58,25.20
2017,05,22,12,59,25.30
2017,05,22,13,00,25.30
2017,05,22,13,01,25.30
2017,05,22,13,02,25.30
2017,05,22,13,03,25.30
2017,05,22,13,04,25.40
2017,05,22,13,05,25.40
2017,05,22,13,06,25.40
2017,05,22,13,07,25.40
2017,05,22,13,08,25.40
2017,05,22,13,09,25.40
2017,05,22,13,10,25.40
2017,05,22,13,11,25.40
2017,05,22,13,12,25.40
2017,05,22,13,13,25.40
2017,05,22,13,14,25.40
2017,05,22,13,15,25.40
2017,05,22,13,16,25.50
2017,05,22,13,17,25.50
2017,05,22,13,18,25.60
2017,05,22,13,19,25.70
2017,05,22,13,20,25.70
2017,05,22,13,21,25.80
2017,05,22,13,22,25.80
2017,05,22,13,23,25.90
2017,05,22,13,24,26.00
2017,05,22,13,25,26.10
2017,05,22,13,26,26.20
2017,05,22,13,27,26.20
2017,05,22,13,28,26.30
2017,05,22,13,29,26.20
2017,05,22,13,30,26.10
2017,05,22,13,31,26.10
2017,05,22,13,32,26.00
2017,05,22,13,33,26.00
2017,05,22,13,34,26.10
2017,05,22,13,35,26.20
2017,05,22,13,36,26.30
2017,05,22,13,37,26.50
2017,05,22,13,38,26.50
2017,05,22,13,39,26.60
2017,05,22,13,40,26.60
2017,05,22,13,41,26.60
2017,05,22,13,42,26.60
2017,05,22,13,43,26.60
2017,05,22,13,44,26.50
2017,05,22,13,45,26.50
2017,05,22,13,46,26.40
2017,05,22,13,47,26.50
2017,05,22,13,48,26.50
2017,05,22,13,49,26.60
2017,05,22,13,50,26.60
2017,05,22,13,51,26.60
2017,05,22,13,52,26.60
2017,05,22,13,53,26.60
2017,05,22,13,54,26.60
2017,05,22,13,55,26.60
2017,05,22,13,56,26.60
2017,05,22,13,57,26.60
2017,05,22,13,58,26.60
2017,05,22,13,59,26.70
2017,05,22,14,00,26.70
2017,05,22,14,01,26.70
2017,05,22,14,02,26.80
2017,05,22,14,03,26.80
2017,05,22,14,04,26.80
2017,05,22,14,05,26.80
2017,05,22,14,06,26.90
2017,05,22,14,07,26.90
2017,05,22,14,08,26.80
2017,05,22,14,09,26.80
2017,05,22,14,10,26.70
2017,05,22,14,11,26.70
2017,05,22,14,12,26.70
2017,05,22,14,13,26.70
2017,05,22,14,14,26.60
2017,05,22,14,15,26.60
2017,05,22,14,16,26.60
2017,05,22,14,17,26.60
2017,05,22,14,18,26.60
2017,05,22,14,19,26.60
2017,05,22,14,20,26.70
2017,05,22,14,21,26.70
2017,05,22,14,22,26.80
2017,05,22,14,23,26.80
2017,05,22,14,24,26.80
2017,05,22,14,25,26.80
2017,05,22,14,26,26.90
2017,05,22,14,27,27.00
2017,05,22,14,28,27.00
2017,05,22,14,29,27.00
2017,05,22,14,30,27.00
2017,05,22,14,31,27.00
2017,05,22,14,32,27.00
2017,05,22,14,33,27.00
2017,05,22,14,34,27.00
2017,05,22,14,35,27.00
2017,05,22,14,36,27.00
2017,05,22,14,37,27.00
2017,05,22,14,38,27.00
2017,05,22,14,39,27.10
2017,05,22,14,40,27.10
2017,05,22,14,41,27.10
2017,05,22,14,42,27.20
2017,05,22,14,43,27.20
2017,05,22,14,44,27.10
2017,05,22,14,45,27.10
2017,05,22,14,46,27.10
2017,05,22,14,47,27.00
2017,05,22,14,48,27.10
2017,05,22,14,49,27.10
2017,05,22,14,50,27.10
2017,05,22,14,51,27.00
2017,05,22,14,52,27.00
2017,05,22,14,53,27.00
2017,05,22,14,54,27.10
2017,05,22,14,55,27.10
2017,05,22,14,56,27.10
2017,05,22,14,57,27.20
2017,05,22,14,58,27.20
2017,05,22,14,59,27.30
2017,05,22,15,00,27.30
2017,05,22,15,01,27.40
2017,05,22,15,02,27.50
2017,05,22,15,03,27.50
2017,05,22,15,04,27.60
2017,05,22,15,05,27.60
2017,05,22,15,06,27.70
2017,05,22,15,07,27.80
2017,05,22,15,08,27.80
2017,05,22,15,09,27.80
2017,05,22,15,10,27.90
2017,05,22,15,11,27.90
2017,05,22,15,12,27.90
2017,05,22,15,13,27.90
2017,05,22,15,14,27.90
2017,05,22,15,15,27.80
2017,05,22,15,16,27.80
2017,05,22,15,17,27.70
2017,05,22,15,18,27.70
2017,05,22,15,19,27.70
2017,05,22,15,20,27.70
2017,05,22,15,21,27.70
2017,05,22,15,22,27.60
2017,05,22,15,23,27.50
2017,05,22,15,24,27.50
2017,05,22,15,25,27.40
2017,05,22,15,26,27.40
2017,05,22,15,27,27.40
2017,05,22,15,28,27.50
2017,05,22,15,29,27.60
2017,05,22,15,30,27.60
2017,05,22,15,31,27.70
2017,05,22,15,32,27.80
2017,05,22,15,33,27.80
2017,05,22,15,34,27.80
2017,05,22,15,35,27.80
2017,05,22,15,36,27.80
2017,05,22,15,37,27.80
2017,05,22,15,38,27.80
2017,05,22,15,39,27.70
2017,05,22,15,40,27.70
2017,05,22,15,41,27.70
2017,05,22,15,42,27.70
2017,05,22,15,43,27.70
2017,05,22,15,44,27.70
2017,05,22,15,45,27.80
2017,05,22,15,46,27.80
2017,05,22,15,47,27.90
2017,05,22,15,48,27.90
2017,05,22,15,49,27.90
2017,05,22,15,50,27.90
2017,05,22,15,51,27.90
2017,05,22,15,52,28.00
2017,05,22,15,53,28.00
2017,05,22,15,54,28.10
2017,05,22,15,55,28.00
2017,05,22,15,56,27.90
2017,05,22,15,57,27.80
2017,05,22,15,58,27.80
2017,05,22,15,59,27.70
2017,05,22,16,00,27.70
2017,05,22,16,01,27.70
2017,05,22,16,02,27.70
2017,05,22,16,03,27.80
2017,05,22,16,04,27.80
2017,05,22,16,05,27.80
2017,05,22,16,06,27.80
2017,05,22,16,07,27.80
2017,05,22,16,08,27.90
2017,05,22,16,09,28.00
2017,05,22,16,10,28.00
2017,05,22,16,11,28.00
2017,05,22,16,12,28.00
2017,05,22,16,13,28.00
2017,05,22,16,14,28.00
2017,05,22,16,15,27.90
2017,05,22,16,16,27.90
2017,05,22,16,17,28.00
2017,05,22,16,18,28.00
2017,05,22,16,19,28.00
2017,05,22,16,20,28.00
2017,05,22,16,21,28.00
2017,05,22,16,22,27.90
2017,05,22,16,23,27.90
2017,05,22,16,24,27.90
2017,05,22,16,25,27.80
2017,05,22,16,26,27.80
2017,05,22,16,27,27.80
2017,05,22,16,28,27.80
2017,05,22,16,29,27.70
2017,05,22,16,30,27.80
2017,05,22,16,31,27.80
2017,05,22,16,32,27.80
2017,05,22,16,33,27.80
2017,05,22,16,34,27.80
2017,05,22,16,35,27.80
2017,05,22,16,36,27.80
2017,05,22,16,37,27.80
2017,05,22,16,38,27.80
2017,05,22,16,39,27.80
2017,05,22,16,40,27.80
2017,05,22,16,41,27.80
2017,05,22,16,42,27.90
2017,05,22,16,43,27.90
2017,05,22,16,44,27.90
2017,05,22,16,45,27.90
2017,05,22,16,46,27.90
2017,05,22,16,47,27.90
2017,05,22,16,48,27.80
2017,05,22,16,49,27.80
2017,05,22,16,50,27.80
2017,05,22,16,51,27.80
2017,05,22,16,52,27.80
2017,05,22,16,53,27.80
2017,05,22,16,54,27.80
2017,05,22,16,55,27.80
2017,05,22,16,56,27.80
2017,05,22,16,57,27.70
2017,05,22,16,58,27.70
2017,05,22,16,59,27.70
2017,05,22,17,00,27.70
2017,05,22,17,01,27.70
2017,05,22,17,02,27.60
2017,05,22,17,03,27.60
2017,05,22,17,04,27.70
2017,05,22,17,05,27.70
2017,05,22,17,06,27.80
2017,05,22,17,07,27.90
2017,05,22,17,08,28.00
2017,05,22,17,09,28.00
2017,05,22,17,10,28.10
2017,05,22,17,11,28.20
2017,05,22,17,12,28.30
2017,05,22,17,13,28.30
2017,05,22,17,14,28.30
2017,05,22,17,15,28.30
2017,05,22,17,16,28.20
2017,05,22,17,17,28.20
2017,05,22,17,18,28.10
2017,05,22,17,19,28.00
2017,05,22,17,20,27.90
2017,05,22,17,21,27.80
2017,05,22,17,22,27.80
2017,05,22,17,23,27.80
2017,05,22,17,24,27.70
2017,05,22,17,25,27.70
2017,05,22,17,26,27.70
2017,05,22,17,27,27.70
2017,05,22,17,28,27.70
2017,05,22,17,29,27.70
2017,05,22,17,30,27.70
2017,05,22,17,31,27.70
2017,05,22,17,32,27.70